Theta_e
357 357 361 359 359 360 358 358 360 361 364 362 363 364 364 364 363 362 363 361 358 359 358 356 359 358 355 354 353 356 357 358 360 358 360 361 362 365 376 374 372 372 372 373 374 374 374 374 374 374 373 372 372 371 370 369 369 367 367 367 366 366 365 365 364 364 363 363 363 363 362 362 362 361 361 362 361 362 362 361 360 359 360 360 361
357 358 356 358 359 359 360 359 360 361 362 363 364 363 362 360 359 359 357 358 357 358 355 355 354 354 354 352 351 352 357 357 358 357 358 359 361 362 377 376 373 372 372 373 373 374 374 374 374 374 373 373 373 373 372 371 370 369 368 367 367 367 366 366 365 365 364 364 364 364 363 362 362 362 362 362 362 362 362 362 362 362 361 362 362
357 358 357 358 360 361 360 362 361 362 364 363 364 363 361 359 358 357 360 358 356 356 355 355 355 352 354 352 353 355 353 356 354 354 358 358 361 363 377 375 374 373 373 373 373 374 374 374 375 375 375 374 374 374 373 372 372 371 370 369 368 367 367 367 366 365 365 365 364 364 364 363 362 363 362 362 362 362 362 362 362 362 362 361 362
359 360 360 361 359 359 360 361 361 361 363 360 360 362 361 359 359 359 359 360 358 357 358 354 354 353 355 353 354 353 353 353 351 352 354 357 357 360 364 373 376 374 373 373 374 374 375 374 375 375 375 375 375 375 374 374 373 372 371 370 369 369 368 368 367 366 366 365 365 365 364 364 363 363 362 363 363 362 362 362 362 362 362 361 361
361 364 364 361 360 360 359 361 362 363 362 360 360 364 362 359 359 358 357 358 356 356 354 355 354 354 354 353 353 353 354 357 356 353 353 354 356 360 363 365 367 377 374 374 374 375 375 375 375 375 375 375 375 375 375 375 375 374 373 371 371 370 369 368 368 367 367 366 366 365 365 365 364 363 363 363 363 363 363 362 362 362 362 362 362
364 363 364 362 363 361 360 362 362 362 363 362 360 360 357 358 356 355 356 356 354 356 352 353 351 352 353 354 354 356 355 353 354 353 354 354 357 361 358 360 364 367 372 376 375 375 375 375 375 375 375 376 376 377 376 376 376 375 375 373 372 371 370 370 369 368 368 367 367 366 366 366 365 365 364 364 364 363 363 363 363 362 363 363 363
366 363 362 361 359 358 358 360 362 364 359 360 358 360 359 358 355 355 355 355 353 355 352 352 351 351 353 355 353 354 356 354 355 354 354 358 358 356 360 357 359 362 360 367 376 375 375 376 376 376 376 376 376 376 376 376 376 376 376 373 373 372 371 371 370 369 368 368 368 367 367 367 366 366 365 365 364 363 363 363 363 363 363 364 363
368 367 361 361 358 358 357 361 362 362 358 359 362 360 358 355 358 356 353 352 354 353 354 352 351 351 352 354 354 355 354 355 354 354 355 356 356 356 358 359 361 361 361 359 363 377 375 374 375 376 376 376 376 376 376 377 376 376 376 375 374 374 373 371 371 370 369 369 369 369 368 368 367 367 366 365 365 365 364 363 363 363 363 363 364
370 370 366 361 358 360 357 359 360 359 357 357 356 356 356 351 356 358 357 353 351 349 350 352 349 350 350 350 351 354 352 355 355 355 355 355 355 354 356 358 361 360 358 359 362 364 379 376 374 375 376 376 376 376 377 377 376 376 376 376 375 374 374 373 372 371 370 370 370 370 369 368 368 368 367 366 366 365 365 364 363 363 363 363 362
369 367 367 363 362 361 359 359 359 357 357 357 356 356 357 354 353 355 355 354 351 349 348 348 347 347 349 349 352 350 351 353 357 355 356 356 358 357 358 356 356 356 358 362 360 362 365 377 375 374 374 376 376 375 375 376 377 376 376 376 375 374 374 374 373 372 371 371 371 370 370 369 369 368 368 367 366 366 366 365 365 364 364 363 363
367 370 367 363 362 361 361 361 361 358 358 357 356 355 354 352 352 352 355 356 353 353 352 351 349 349 348 348 349 354 357 354 357 357 356 355 354 355 353 357 356 356 360 360 358 358 360 363 373 371 369 371 373 374 374 374 375 376 376 376 375 375 375 374 374 374 373 372 371 370 370 370 369 369 368 368 367 367 366 366 366 365 365 364 364
369 369 369 366 361 360 360 361 361 359 355 355 353 352 353 353 353 351 353 352 353 352 351 350 348 349 348 349 352 352 349 351 352 353 356 355 355 357 354 355 356 359 356 357 358 355 358 361 364 363 364 371 371 371 372 372 372 374 374 375 376 376 376 375 374 374 373 373 372 372 371 370 370 370 369 368 368 367 367 366 366 366 365 365 365
368 366 367 366 364 361 362 361 360 359 357 356 355 354 356 354 352 357 352 353 351 351 350 348 344 343 347 345 349 348 346 351 348 352 351 354 355 354 356 355 357 357 360 357 355 353 352 359 361 366 364 364 374 373 371 373 372 372 373 375 376 376 376 375 375 374 374 373 373 372 372 371 371 370 370 369 368 368 367 367 367 366 366 366 365
368 369 368 364 362 358 359 358 359 360 359 360 360 361 362 360 355 351 353 349 348 349 348 348 343 341 339 341 345 350 349 345 344 349 348 349 351 351 352 352 351 353 355 359 356 353 351 352 362 358 364 364 366 372 372 372 372 372 373 374 375 377 376 376 375 375 375 374 373 373 372 372 372 371 371 370 369 368 368 368 367 367 367 366 366
367 368 365 363 361 359 359 356 359 359 360 362 362 361 362 360 361 355 350 351 350 351 351 350 343 345 347 344 341 342 346 349 348 350 346 347 348 349 349 346 348 351 348 354 356 354 351 351 351 355 362 368 366 365 369 370 368 372 373 374 373 376 377 377 376 376 375 374 373 373 373 373 372 371 371 371 370 369 368 368 368 367 367 366 366
362 361 360 360 362 363 359 356 359 362 361 362 363 359 360 357 355 356 357 350 348 348 352 353 351 346 342 341 343 341 337 345 346 346 350 349 348 348 345 346 349 350 351 349 345 349 354 352 351 357 364 365 363 364 364 363 368 373 374 375 373 373 376 377 377 376 376 375 374 373 373 373 372 372 371 371 370 369 368 368 368 368 367 367 366
360 360 360 360 363 365 363 360 358 360 359 357 357 355 353 355 356 356 357 352 345 344 351 352 351 354 346 343 341 336 338 340 342 344 351 348 348 349 347 349 352 345 347 346 347 349 348 348 351 358 361 363 363 363 358 359 362 375 379 376 374 373 373 376 377 377 376 376 374 374 373 373 372 372 372 371 370 370 369 369 368 368 368 367 366
361 359 358 358 360 361 365 363 359 356 356 356 356 353 354 353 356 355 353 356 355 352 349 349 347 353 353 350 349 340 340 343 342 338 348 348 349 352 352 350 348 345 348 347 346 346 350 350 352 354 356 358 360 358 355 354 360 360 365 378 377 376 372 374 376 377 377 376 375 374 374 373 372 372 372 371 370 370 369 369 369 368 368 367 366
357 358 357 361 363 364 366 365 361 359 360 357 355 354 352 352 354 352 352 353 356 353 348 349 350 352 351 352 353 352 348 346 340 343 339 344 350 350 350 350 351 349 346 346 347 347 349 348 348 348 349 353 355 357 360 357 357 362 363 368 376 376 374 373 375 377 377 376 375 374 374 373 372 372 372 371 371 370 370 369 369 368 368 367 367
356 361 361 361 364 362 365 366 362 360 356 353 351 351 350 350 355 356 358 359 357 354 353 351 348 347 350 350 351 351 350 346 346 342 340 338 340 347 353 352 351 351 350 347 349 350 349 349 346 344 347 349 352 355 356 356 358 359 361 366 368 375 374 373 375 376 377 377 376 375 374 373 373 372 371 371 371 370 370 370 370 369 368 368 368
360 365 364 360 362 363 366 366 365 363 361 354 354 353 353 354 358 358 360 361 360 358 356 355 354 350 350 352 351 351 351 351 350 351 347 343 340 343 345 349 351 350 353 351 350 350 350 351 351 352 355 354 353 354 355 360 357 359 363 371 368 368 372 374 375 376 377 377 376 375 374 374 373 372 371 370 370 370 370 370 370 370 369 369 369
356 366 369 367 365 366 360 357 358 357 358 358 357 358 359 361 360 359 362 363 361 358 356 357 357 357 356 354 353 352 351 347 351 349 346 351 345 343 347 344 343 349 353 351 350 350 352 353 351 349 351 351 351 353 357 361 360 353 355 369 370 369 369 369 373 375 376 376 376 375 375 374 373 372 371 371 370 370 370 370 371 370 370 369 369
353 356 356 358 361 364 359 356 355 357 355 356 356 353 353 352 351 354 358 362 362 365 364 364 361 362 356 355 352 351 349 349 350 348 347 347 349 349 347 351 348 346 350 353 352 350 350 351 352 351 349 350 353 354 359 360 363 359 364 362 368 368 369 369 369 371 374 376 375 376 375 374 373 372 371 371 370 370 370 370 370 370 370 369 369
351 350 353 355 358 356 361 359 357 356 356 357 356 355 355 356 355 357 358 360 364 365 365 364 363 358 357 355 352 353 353 353 353 350 348 349 350 351 349 350 350 347 349 352 353 353 352 352 352 351 350 349 352 359 361 358 359 366 359 361 364 368 366 365 367 369 370 373 375 375 376 375 373 372 372 371 371 370 370 370 370 370 370 369 369
350 349 350 352 355 354 356 357 358 361 368 369 369 370 368 365 364 364 363 366 364 365 362 361 359 359 356 354 355 352 354 357 356 353 352 355 356 350 353 354 346 346 348 348 347 350 352 353 354 353 351 354 353 356 353 357 357 360 362 369 358 365 366 367 367 366 368 370 372 375 375 375 374 373 372 371 371 371 370 370 370 370 370 369 369
347 350 352 352 353 355 359 362 368 371 372 372 371 370 370 367 365 364 364 365 366 366 364 362 361 360 357 356 353 353 352 355 356 357 350 347 348 351 349 348 348 344 346 347 349 345 349 352 354 354 354 352 353 354 354 354 356 358 358 359 360 362 363 364 364 366 367 368 370 372 374 375 375 374 373 372 372 372 371 370 370 370 370 370 369
348 352 358 358 358 361 363 366 368 372 373 371 366 368 370 369 369 368 367 365 365 365 362 362 357 358 359 359 356 356 358 358 357 356 356 354 351 346 347 343 341 342 342 345 347 347 347 351 353 353 352 357 358 356 354 353 355 361 358 353 357 357 357 358 357 358 358 364 368 370 372 374 374 375 375 374 373 373 372 371 371 372 372 372 371
354 357 356 359 362 366 366 367 371 368 368 368 367 366 366 366 365 366 364 362 360 361 359 359 358 358 359 360 358 358 358 356 354 352 354 354 353 352 351 345 339 335 340 339 341 343 350 348 352 355 355 357 356 355 358 354 353 360 367 355 354 362 357 355 354 355 357 357 358 362 368 371 373 374 375 375 374 373 373 373 373 373 373 373 373
350 354 355 363 371 368 367 364 364 363 364 362 360 362 363 362 359 360 359 358 359 358 360 359 358 357 357 357 355 353 354 355 353 352 352 355 355 356 352 345 346 338 335 335 338 338 344 347 345 351 355 355 357 355 352 355 357 355 354 357 358 360 355 350 350 357 354 355 359 358 358 366 371 373 374 375 375 375 375 374 374 374 374 373 373
354 355 363 364 368 365 363 360 359 358 357 356 356 356 357 355 354 354 351 350 350 351 352 351 350 349 350 352 352 347 349 353 352 353 352 353 351 350 347 346 346 340 338 335 335 340 338 341 343 346 353 353 352 353 354 354 350 352 355 356 356 357 352 351 353 354 354 353 353 353 355 357 360 367 373 374 374 375 375 374 374 374 374 374 374
359 370 368 361 361 358 359 356 355 354 353 352 352 352 352 350 349 348 347 346 344 344 345 344 345 344 343 343 345 342 344 349 349 350 349 350 351 349 346 347 349 347 342 338 334 339 341 338 340 344 346 347 349 351 350 355 353 354 355 354 354 356 356 356 356 355 353 352 351 351 353 354 355 357 361 369 373 373 373 371 372 373 373 373 373
368 363 361 360 358 356 352 351 351 352 350 348 348 347 348 347 344 341 342 344 342 341 341 342 343 341 342 341 341 341 344 343 341 342 343 346 347 345 345 346 348 349 347 341 337 336 341 340 342 344 344 345 348 347 348 352 351 347 356 355 356 359 357 356 355 356 353 350 349 348 349 350 351 353 356 358 360 361 359 356 354 358 362 365 371
365 360 358 357 356 354 352 351 349 349 349 346 345 345 345 342 342 342 342 342 341 340 341 340 340 341 341 339 339 339 341 340 339 340 338 339 342 345 347 347 345 346 344 343 340 337 340 343 342 342 343 347 344 345 344 347 349 351 353 356 358 358 357 356 357 351 351 350 349 347 346 346 347 348 350 352 356 355 353 354 354 354 357 359 360
361 357 356 354 353 351 350 349 348 345 345 346 342 344 341 341 340 340 339 338 339 338 337 337 337 337 336 336 336 337 338 337 338 337 338 337 338 339 341 341 341 340 342 341 340 335 335 339 340 344 342 346 343 346 346 344 346 350 350 354 354 354 355 358 358 359 349 350 348 345 345 343 344 346 349 350 351 350 351 353 354 353 351 348 345
358 356 353 352 351 351 349 347 345 343 343 342 342 342 340 339 338 337 337 336 336 335 333 334 334 334 334 334 333 334 335 334 334 335 336 337 336 335 335 338 339 339 341 343 339 335 334 336 339 339 341 344 342 340 343 343 348 349 349 347 344 349 354 356 355 354 346 349 345 345 343 342 343 345 347 349 350 351 350 348 345 343 341 340 339
352 352 352 350 350 350 346 344 343 344 343 342 341 341 339 338 337 335 335 334 333 333 332 332 331 332 332 332 331 332 332 332 332 332 334 334 336 337 335 338 338 338 339 341 342 340 336 334 337 337 340 339 340 341 344 346 345 345 344 346 346 348 350 348 349 352 346 347 345 344 343 342 341 341 341 342 345 344 338 336 336 335 335 335 336
352 351 350 349 347 345 340 340 342 342 342 342 341 340 338 338 337 335 336 335 334 334 334 333 332 331 331 330 330 331 331 329 331 331 332 334 334 335 336 336 336 337 338 339 339 340 337 334 334 338 339 339 341 344 344 344 343 344 346 346 346 349 349 348 349 351 348 345 344 343 342 341 340 338 338 337 337 336 335 335 335 334 334 333 333
353 350 347 344 342 340 340 340 341 343 343 342 340 339 337 338 336 336 335 335 333 333 331 331 331 331 330 331 331 331 331 330 330 331 333 333 334 335 334 334 335 336 337 337 339 339 339 337 336 336 341 340 341 343 344 345 343 341 344 343 346 348 349 347 346 347 352 353 351 348 341 341 338 337 337 336 335 335 336 336 336 335 335 333 332
350 347 345 342 341 340 342 343 342 342 341 340 340 339 338 338 337 335 334 333 333 332 332 331 331 332 331 330 331 331 331 331 330 331 332 332 332 333 334 333 336 338 337 338 338 338 338 338 337 338 338 340 340 338 343 346 346 345 343 343 341 343 346 349 348 350 350 348 345 343 347 348 346 344 333 335 335 336 336 336 337 338 338 333 330
347 346 343 341 341 342 342 343 342 342 341 339 339 339 339 337 336 334 333 333 332 332 331 331 332 332 331 332 332 331 331 333 333 333 333 333 333 333 335 338 338 338 338 337 338 337 337 336 335 335 337 337 340 342 344 345 343 342 344 341 338 339 342 348 350 348 350 351 349 346 344 345 345 343 339 339 339 339 340 341 339 340 338 335 332
343 342 342 340 341 341 342 341 341 339 337 336 335 335 336 336 336 334 334 332 332 331 331 331 332 332 331 331 332 332 333 334 334 333 333 333 333 333 336 337 336 336 334 338 337 335 335 335 337 336 337 337 339 339 340 339 338 338 341 340 339 341 342 346 348 349 349 346 347 347 348 349 349 349 349 348 348 347 345 341 343 340 334 334 331
344 344 343 343 342 341 340 340 339 336 335 334 332 330 331 335 336 333 334 333 333 332 332 331 332 333 331 332 333 332 334 334 335 334 333 333 334 335 334 336 337 336 336 334 333 335 335 335 333 334 335 332 336 336 334 336 339 342 340 340 338 339 339 342 346 347 349 347 345 345 347 351 349 345 346 345 346 346 344 341 337 335 331 329 328
342 343 342 341 341 341 340 339 336 334 333 331 328 326 328 330 336 334 332 334 334 333 333 332 333 332 331 332 333 333 334 334 335 334 333 332 333 334 334 335 337 337 336 334 337 338 337 334 336 335 336 333 335 338 341 341 344 338 339 341 340 340 341 336 332 341 348 344 340 338 341 348 347 342 343 342 340 338 337 332 329 329 328 328 327
342 342 341 340 340 340 339 338 336 333 332 327 326 326 328 328 332 336 333 333 333 334 334 334 333 331 331 331 332 333 334 333 334 336 335 333 333 334 336 336 337 338 336 337 335 334 336 336 337 338 335 335 338 337 340 341 341 342 341 342 341 337 338 337 335 332 344 347 345 344 341 343 345 342 340 340 338 334 330 328 327 327 328 327 327
341 341 340 339 339 339 338 337 335 333 331 327 326 326 327 328 330 336 334 334 334 333 334 334 334 333 333 332 331 333 332 331 333 335 335 336 336 337 337 338 338 338 336 338 338 340 339 335 338 338 338 338 338 340 342 342 344 340 341 339 341 340 340 339 340 341 343 348 346 339 334 337 341 339 336 337 335 333 329 326 326 327 326 326 325
340 338 338 339 338 338 338 336 335 333 333 327 324 325 327 327 330 335 335 334 334 334 335 335 335 334 332 332 332 331 332 333 334 335 335 336 336 336 337 337 337 338 337 337 338 338 340 341 338 335 336 339 337 337 342 344 343 341 340 337 340 339 337 338 343 341 341 344 338 336 335 341 341 338 334 334 334 328 325 321 321 323 324 324 323
339 338 338 337 338 338 338 336 333 331 330 322 323 324 325 325 329 336 336 335 334 335 335 336 336 334 333 333 332 332 332 334 333 332 334 336 336 335 336 336 337 338 338 338 338 339 338 340 338 337 336 337 337 339 341 343 342 343 344 342 342 342 340 343 345 345 344 344 342 338 328 333 341 336 334 333 332 329 326 320 319 321 321 322 321
340 339 338 338 337 338 338 337 333 331 328 321 321 322 322 324 328 335 335 336 335 335 335 335 335 335 334 334 333 333 335 335 332 329 332 336 336 334 335 335 335 336 337 336 335 336 338 339 338 337 336 335 333 336 338 341 345 343 342 345 345 345 341 336 335 338 339 342 343 340 333 335 341 335 333 335 334 331 329 326 321 320 319 319 318
338 337 338 337 338 338 338 337 335 333 331 324 319 320 320 321 333 335 337 336 336 334 334 335 334 334 334 336 334 334 333 332 330 326 328 336 333 332 332 332 333 333 334 338 335 335 334 331 330 331 331 332 331 329 329 331 336 343 346 341 338 339 335 334 336 337 338 339 338 339 340 337 339 337 333 334 333 332 332 333 330 321 319 318 317
337 338 339 337 338 338 338 337 336 334 333 327 317 318 318 320 333 336 337 336 335 335 334 336 335 333 334 332 335 332 331 331 326 325 327 337 335 335 333 332 330 329 330 333 337 338 336 334 333 332 333 334 335 333 332 331 332 337 339 335 341 344 337 334 334 335 337 338 339 342 339 334 336 337 334 334 334 333 335 336 337 329 321 318 316
338 337 336 336 336 338 339 337 333 335 335 331 318 316 317 319 333 338 336 334 334 334 334 333 335 333 334 333 331 331 332 330 322 323 325 334 334 333 332 330 329 329 330 334 335 336 337 337 337 337 337 338 338 338 338 336 335 335 338 336 339 339 337 335 336 338 331 332 337 339 333 333 339 338 338 332 327 332 334 335 335 336 337 338 334
Wind_Speed
1 1 1 1 1 1 2 2 2 2 2 3 2 1 2 3 3 4 3 3 4 6 4 6 6 5 6 6 7 6 5 5 4 4 4 4 3 6 13 12 11 12 12 13 13 13 14 14 14 15 14 14 14 14 15 14 14 14 14 14 14 14 14 14 15 15 15 14 14 14 14 14 14 14 15 16 16 16 17 18 17 17 17 17 17
2 1 1 0 1 1 1 1 1 2 3 3 2 2 2 3 4 4 4 5 5 5 5 6 7 7 6 7 7 7 6 5 4 5 4 4 2 3 14 11 12 12 12 13 13 13 14 14 14 15 15 15 15 15 15 15 15 15 15 14 15 15 15 15 15 15 15 15 15 15 15 15 15 15 15 15 15 15 15 15 15 15 15 16 16
1 2 1 1 1 1 2 1 2 2 2 3 3 3 4 4 4 4 4 4 5 5 6 6 6 7 6 8 7 7 6 6 6 6 4 4 3 3 8 13 11 12 12 13 13 14 14 14 14 14 15 16 16 16 16 16 16 16 16 15 16 16 16 16 16 16 16 16 16 16 16 16 16 16 15 15 15 15 15 15 15 15 15 16 16
2 1 1 1 2 1 2 3 2 2 2 3 4 3 4 5 5 5 5 5 6 5 5 6 6 7 7 8 7 7 6 6 7 6 5 6 3 3 2 5 11 12 13 13 14 14 14 14 14 14 15 16 16 17 17 17 17 17 16 16 17 17 17 16 17 17 17 17 17 17 17 16 16 16 16 16 16 16 16 16 15 15 16 15 16
2 2 2 2 2 2 3 2 3 2 3 4 5 4 4 4 5 4 5 5 6 6 6 6 7 6 7 7 7 7 6 6 7 7 6 5 5 3 2 4 5 12 14 14 15 15 15 15 15 15 15 16 16 17 17 18 18 18 17 17 17 17 17 18 17 17 17 17 17 17 17 17 17 17 17 17 16 16 16 16 16 16 16 16 16
3 3 3 4 4 4 4 3 2 3 4 4 4 3 4 4 5 5 4 6 6 6 6 7 7 7 7 7 7 7 6 7 7 7 6 6 5 3 4 5 6 4 6 15 15 15 15 15 15 15 15 15 16 17 18 18 18 18 18 17 18 19 19 18 18 18 18 18 18 18 18 17 18 17 17 17 17 17 17 17 16 16 16 16 16
4 4 4 4 4 4 3 3 2 3 5 4 5 4 5 5 4 6 6 6 6 6 7 7 7 8 7 7 7 7 6 7 6 7 7 6 5 5 4 4 4 4 6 6 14 16 15 15 16 16 16 16 16 16 17 18 18 19 19 19 18 19 19 19 18 18 19 18 18 18 18 18 18 18 18 18 18 18 17 17 17 17 16 16 17
4 3 5 4 4 4 3 2 4 5 5 4 4 5 5 5 5 5 6 7 7 8 7 7 8 8 7 7 7 7 7 7 7 7 7 6 7 7 6 5 5 4 2 5 5 10 16 15 15 16 16 17 16 16 17 17 19 19 19 19 18 18 18 19 19 19 18 19 19 19 19 19 18 18 18 19 19 18 18 18 18 18 17 17 17
4 4 5 5 5 5 4 4 4 5 5 5 5 5 6 6 5 5 6 7 8 9 8 8 8 9 9 9 8 7 7 7 8 7 7 8 7 7 7 6 3 5 7 6 6 4 13 15 15 15 16 16 16 16 16 17 18 19 19 19 19 19 19 19 19 19 19 20 20 20 19 20 20 19 18 19 19 19 18 18 18 17 18 18 18
4 4 5 5 5 5 6 6 6 6 5 6 6 6 6 6 7 6 6 7 8 9 10 9 9 9 9 9 8 8 8 8 7 7 7 7 6 6 6 5 5 5 4 3 4 4 5 13 16 16 16 17 17 17 17 17 18 18 19 19 19 19 20 20 20 19 19 20 21 21 20 20 20 20 19 19 19 18 18 18 18 19 19 19 19
4 4 5 5 5 5 5 5 6 6 6 6 6 6 6 7 8 8 7 7 8 9 10 9 9 9 9 10 10 9 7 8 8 8 8 7 6 6 6 6 5 4 4 5 6 6 6 4 7 8 11 19 17 17 17 17 17 18 19 19 20 20 20 21 21 20 19 20 21 21 21 20 20 20 20 20 19 18 18 19 19 19 19 19 19
4 5 5 5 6 5 6 6 6 6 6 7 7 7 7 8 8 9 10 9 9 8 9 9 9 9 10 9 8 8 11 8 10 9 8 7 6 6 5 6 5 3 4 5 5 5 4 5 5 6 7 15 19 18 18 17 17 17 18 19 20 20 21 21 21 21 21 20 21 21 21 21 20 20 20 19 19 19 19 19 19 19 19 19 19
5 6 5 5 6 6 7 7 7 6 7 7 8 9 8 8 9 8 10 9 8 8 8 8 9 9 8 8 6 5 8 6 10 9 7 7 8 12 11 6 5 5 4 4 3 6 6 4 4 5 6 5 11 17 17 17 17 17 17 18 20 20 21 21 21 20 21 21 20 20 20 20 21 21 20 19 19 19 19 19 19 19 18 18 18
5 5 5 6 7 6 7 7 7 7 7 8 9 9 9 9 8 8 8 8 8 8 7 7 7 8 9 8 8 3 4 4 3 6 6 5 5 4 10 8 11 13 7 3 5 7 8 7 4 4 3 5 5 7 10 12 14 18 17 18 19 20 20 21 21 21 21 22 20 19 19 20 21 20 20 19 19 19 19 19 19 19 18 18 18
6 6 6 7 7 7 7 7 7 7 7 7 8 8 7 8 7 7 8 7 7 7 6 4 7 7 8 7 7 5 6 3 4 4 6 6 4 3 4 5 6 7 9 7 6 6 7 5 9 10 8 6 6 5 6 8 10 17 19 19 19 19 20 21 20 21 21 21 20 19 19 19 20 19 19 19 19 18 19 18 19 19 19 19 18
6 6 6 5 6 6 7 8 7 7 7 7 7 8 7 7 7 6 6 8 7 7 6 6 7 7 7 7 8 8 8 2 2 4 2 6 3 1 5 4 7 7 5 3 7 6 5 7 5 6 5 6 7 4 4 5 8 15 18 18 18 19 20 21 21 21 20 21 19 19 19 19 19 19 19 19 19 18 18 18 18 18 19 19 19
5 6 6 6 6 7 7 8 8 7 7 7 7 7 7 7 7 7 7 7 8 9 8 8 9 6 8 7 7 6 6 9 8 5 2 3 5 4 6 6 3 5 5 6 4 4 6 7 7 4 6 5 5 6 7 5 7 6 11 16 18 19 19 20 21 21 21 20 20 19 19 19 19 19 19 19 18 18 18 18 18 18 18 18 18
5 5 5 6 6 7 7 7 7 6 6 6 7 7 8 8 7 6 7 8 7 8 8 8 12 9 8 9 8 9 9 9 10 4 4 8 5 7 6 6 1 5 7 4 4 4 6 6 7 7 8 7 5 5 4 6 7 7 6 9 17 18 19 20 20 20 20 20 19 19 18 18 18 18 18 18 18 18 18 18 18 18 18 18 17
5 5 5 5 6 6 7 7 7 7 6 6 7 8 8 8 7 7 8 8 8 8 9 11 9 10 9 10 11 10 10 6 7 11 9 5 6 7 7 7 6 6 6 6 6 6 6 6 6 7 9 6 7 7 6 6 9 10 12 1 14 16 17 19 19 20 20 20 19 19 19 19 18 18 18 18 18 18 18 18 17 17 17 17 17
5 3 5 5 5 6 6 6 6 6 6 6 7 7 8 9 9 9 9 9 9 10 11 10 11 10 10 11 11 11 10 11 13 11 11 12 10 9 7 6 6 8 8 8 10 8 8 6 7 10 8 8 10 9 8 8 8 7 7 12 8 12 15 17 18 19 19 20 19 19 19 19 18 18 18 17 17 17 18 18 18 18 17 17 17
4 4 5 6 5 5 5 6 6 6 6 7 7 8 9 10 9 8 8 8 9 9 10 10 10 11 10 10 11 9 9 11 9 12 10 11 13 12 11 10 11 11 10 10 9 8 9 7 8 9 7 8 10 10 9 5 5 6 7 7 11 11 12 14 17 19 20 19 19 19 19 19 18 18 18 17 17 17 17 17 18 18 18 18 17
3 4 5 5 5 4 5 6 6 6 6 8 8 9 8 8 9 10 9 10 9 10 10 10 10 11 11 11 8 10 6 9 2 1 9 10 12 12 11 12 12 9 9 10 11 12 11 10 11 12 11 10 9 10 6 5 5 6 8 8 10 11 11 13 14 17 19 19 19 19 19 19 18 18 18 18 18 17 17 17 17 17 17 17 17
4 4 5 5 3 4 5 7 7 7 7 8 8 8 9 10 10 11 10 10 10 10 11 11 10 9 10 7 11 9 12 10 7 3 6 7 9 12 12 12 12 14 10 10 11 12 11 10 11 9 14 12 8 7 5 5 7 8 7 5 7 9 10 12 13 15 17 18 19 18 18 18 18 18 18 18 18 18 17 17 17 17 17 17 17
5 5 5 2 4 4 6 7 7 7 7 7 9 9 10 10 10 9 9 10 9 9 10 11 10 10 9 9 8 8 8 8 7 5 9 8 10 11 11 11 12 12 10 9 10 10 10 11 10 11 10 11 10 6 5 7 7 6 7 10 7 7 9 10 11 13 15 16 16 17 18 18 18 18 18 18 18 18 18 17 17 17 17 16 16
6 5 3 5 6 6 6 7 7 6 7 7 7 9 8 9 10 10 10 10 8 9 10 10 12 10 8 11 9 7 5 7 9 9 8 8 8 10 10 8 11 12 10 9 7 6 8 9 9 9 9 7 8 6 4 5 8 9 11 6 4 6 5 7 8 10 12 14 15 16 17 18 17 17 18 18 18 18 18 18 17 17 16 16 16
5 4 4 6 7 7 6 7 6 5 6 6 7 7 7 7 8 8 9 8 7 8 9 11 9 11 9 8 10 10 10 7 7 5 4 8 11 10 10 9 9 11 12 10 9 9 8 7 8 8 8 9 9 7 7 7 4 2 10 6 8 6 3 4 2 4 8 11 13 14 16 16 17 17 17 17 18 18 18 18 18 17 17 17 17
4 4 5 6 7 6 6 6 5 5 5 6 7 6 6 6 6 6 6 6 7 8 9 10 11 12 11 9 8 8 7 6 5 5 5 6 6 8 10 11 12 11 11 11 10 10 12 9 7 8 9 7 6 6 7 5 8 14 13 8 5 7 7 5 3 3 1 3 7 12 14 15 17 18 17 17 18 18 17 17 18 18 18 17 17
3 4 6 5 5 6 6 5 5 5 5 5 5 5 5 5 5 5 7 6 10 12 12 11 13 14 12 9 9 7 7 6 5 5 5 6 6 6 5 8 11 12 11 12 10 10 9 9 6 5 6 6 5 6 7 8 4 2 6 5 8 5 7 5 3 2 2 2 2 4 9 13 16 18 18 18 18 18 18 18 19 19 19 18 18
6 5 4 5 4 5 4 5 5 4 4 4 5 5 5 5 6 6 6 8 8 10 8 9 10 10 9 10 8 8 7 5 6 6 6 6 6 6 7 9 9 11 11 11 9 9 7 6 6 3 3 3 3 4 5 2 8 7 5 5 1 3 3 2 3 2 3 4 4 4 4 6 11 15 17 18 19 19 20 21 21 20 19 19 19
4 5 5 3 4 4 4 4 4 4 4 4 5 6 6 5 6 5 5 7 8 7 8 9 9 9 8 8 7 8 9 6 6 7 7 7 7 7 8 9 8 10 9 11 11 9 9 9 8 6 2 5 5 5 6 11 5 3 4 3 2 4 3 4 5 5 5 6 6 5 5 5 6 8 11 14 16 17 19 20 21 21 20 19 19
4 1 3 3 2 3 3 2 3 3 3 4 5 6 6 6 6 7 7 8 8 8 8 8 8 8 9 9 8 8 8 8 8 7 7 6 7 7 8 7 7 9 10 10 11 8 8 9 8 8 7 7 6 5 2 2 3 3 5 6 7 4 2 8 8 9 9 8 6 4 4 6 7 8 8 10 12 14 16 17 17 18 18 18 18
2 2 2 3 3 3 3 4 4 5 6 6 6 6 6 6 7 7 8 9 8 8 8 8 7 8 9 9 9 8 8 8 8 8 8 7 7 7 8 7 6 7 8 10 11 11 9 10 10 9 10 9 7 6 6 5 5 5 4 5 6 4 7 7 8 9 9 8 6 6 4 3 5 7 9 10 8 6 6 5 11 16 18 14 14
3 3 4 5 4 4 4 4 4 5 5 6 6 6 6 7 6 6 7 8 8 7 8 9 8 8 8 9 9 8 8 8 8 8 8 8 7 6 6 6 7 7 6 7 9 11 9 8 8 9 8 9 7 7 8 5 4 3 4 5 6 6 6 6 7 6 8 6 4 3 2 4 4 5 4 3 6 6 2 4 4 1 5 9 14
3 5 5 4 5 4 4 5 5 5 5 5 6 6 7 7 7 6 7 8 8 8 8 8 9 8 9 9 8 8 8 8 8 8 7 7 7 7 6 7 7 7 6 7 8 8 10 9 8 8 8 6 7 6 5 6 5 4 6 5 5 6 6 5 5 5 8 7 5 2 5 5 5 5 6 8 6 5 5 6 8 9 9 8 6
5 5 5 6 6 5 5 5 5 5 6 6 6 6 6 7 7 7 7 8 8 9 9 10 10 9 9 9 10 10 8 9 9 8 7 7 7 8 8 7 7 7 6 6 7 8 10 9 8 8 7 6 7 7 6 6 6 5 7 7 6 5 6 6 6 6 8 8 6 9 7 6 8 8 8 8 8 8 8 8 9 9 9 11 12
6 6 6 6 5 4 4 5 5 5 6 6 6 6 6 7 8 8 8 9 9 9 9 10 10 9 9 9 10 10 9 9 8 7 7 7 7 6 8 8 7 7 6 6 6 7 8 9 7 7 6 7 7 7 6 5 6 5 5 6 6 6 7 7 7 7 7 9 13 10 8 8 7 6 6 6 7 9 11 14 14 14 13 13 14
7 6 6 5 5 4 4 5 6 6 6 6 6 6 6 7 7 8 8 8 8 9 9 8 9 9 9 9 9 9 8 8 8 8 8 10 9 8 8 7 6 6 5 5 6 6 7 8 8 6 6 6 5 5 5 6 5 5 5 6 5 5 5 6 6 4 3 16 12 11 11 11 9 9 8 8 10 11 13 14 14 14 12 11 13
7 6 5 4 5 6 5 5 6 6 6 6 6 6 7 7 7 7 8 8 9 9 9 9 8 8 8 8 8 8 8 8 8 8 9 10 8 7 8 7 6 6 5 5 5 5 6 6 7 7 5 5 5 5 4 5 5 5 4 5 5 4 3 3 7 6 4 3 4 7 10 9 10 12 11 11 10 10 9 9 11 12 12 11 11
7 6 6 6 5 6 6 6 7 7 6 6 6 6 6 6 7 8 8 8 9 8 8 8 8 8 8 8 7 7 8 8 8 9 9 8 7 8 7 7 6 6 6 5 4 4 5 5 4 4 4 3 4 4 3 4 5 4 3 3 3 2 3 3 2 2 2 4 8 9 8 9 11 10 11 11 11 9 9 10 7 8 8 9 8
8 7 6 6 6 6 6 6 6 6 6 6 6 6 6 7 7 7 8 8 8 8 8 8 8 7 7 7 7 7 7 8 9 7 8 7 7 7 6 5 5 4 4 4 5 3 3 3 4 3 3 3 2 1 2 4 3 2 2 3 3 2 2 2 4 4 3 2 1 5 5 8 9 12 14 14 12 10 7 6 10 10 10 10 7
6 7 7 7 7 7 7 7 6 6 6 6 6 6 6 7 7 7 7 8 8 8 7 7 7 7 7 6 6 6 8 9 9 8 9 10 8 8 7 8 9 7 5 3 4 5 4 3 2 1 3 2 2 2 1 1 2 3 3 2 3 3 1 3 2 4 4 2 3 3 2 2 5 4 4 6 6 7 10 10 8 12 12 10 8
7 7 7 7 7 7 7 7 6 6 6 5 7 9 7 6 6 6 6 8 7 6 6 8 8 8 7 6 6 8 9 9 10 10 10 11 11 9 7 7 8 8 7 7 6 4 4 4 3 3 3 5 5 5 6 6 5 3 3 3 3 4 5 3 2 4 4 4 2 3 3 5 5 6 7 8 7 9 8 8 9 10 13 15 13
8 7 7 7 7 7 7 6 7 6 6 5 9 8 8 10 7 6 6 6 6 7 7 7 8 9 7 6 5 6 8 9 9 10 9 9 9 9 9 8 8 7 7 6 6 5 4 5 3 5 5 4 5 5 2 5 4 5 3 3 2 2 1 3 2 2 4 3 2 3 3 4 6 8 8 8 9 9 9 10 13 15 16 16 14
8 8 8 8 7 7 6 6 7 7 6 7 7 7 7 8 8 5 6 7 7 8 8 8 8 8 7 5 5 5 7 9 8 7 8 8 7 6 9 9 8 8 7 7 7 7 5 4 6 5 6 5 5 5 5 4 5 4 4 4 4 6 4 4 6 4 2 4 3 4 5 7 6 9 10 9 9 10 12 14 14 15 14 13 12
8 8 8 8 7 7 7 7 7 7 7 6 6 7 7 8 10 9 7 6 7 8 8 8 8 8 6 5 4 5 5 9 7 8 7 6 7 9 10 11 13 13 11 10 9 8 7 7 8 7 7 6 5 5 6 6 5 4 4 4 5 4 2 6 5 5 4 4 1 5 8 7 7 10 9 9 10 9 10 14 17 15 14 14 14
8 8 8 8 7 7 7 7 7 7 6 5 7 7 7 8 9 9 7 6 7 8 8 8 8 8 7 6 5 5 6 6 7 8 9 6 6 5 6 7 8 11 11 13 12 12 11 9 10 10 11 11 8 9 7 7 6 5 5 5 5 5 6 6 5 6 7 7 7 3 6 6 8 9 9 9 9 10 10 13 15 15 15 16 16
9 9 9 8 7 7 7 7 7 7 4 5 5 7 7 9 10 11 7 6 7 7 8 9 9 8 7 5 5 5 6 7 6 8 8 8 6 5 5 6 7 8 10 11 11 10 10 9 10 10 10 10 10 10 9 8 8 6 5 5 5 4 5 4 4 5 6 9 9 5 5 5 5 9 9 8 9 9 8 12 14 14 15 16 16
8 8 7 7 7 8 7 7 7 7 4 4 5 6 8 8 12 3 6 6 7 7 8 11 10 8 7 5 4 7 7 7 10 13 11 11 6 5 4 5 5 6 7 7 8 11 11 10 10 10 9 9 11 12 12 10 8 7 6 1 2 3 3 3 5 6 8 9 10 5 6 6 5 9 8 7 8 9 8 8 11 14 17 16 14
9 8 8 7 7 7 7 7 6 5 4 3 4 6 7 9 8 6 5 7 7 8 9 10 10 9 8 9 8 7 8 9 12 11 12 12 4 3 3 3 4 5 5 6 7 7 7 9 8 7 5 4 9 13 14 15 12 8 3 5 7 3 4 3 5 7 8 7 7 7 3 7 7 7 8 7 8 8 8 7 7 11 15 14 14
9 8 8 7 7 7 7 6 5 5 3 3 6 7 8 8 8 5 5 7 8 8 9 9 8 8 8 13 11 9 9 10 12 12 13 10 7 8 8 8 7 7 6 4 4 5 5 6 8 8 7 3 6 10 12 13 14 12 10 10 8 6 5 5 6 7 8 8 7 8 3 6 6 6 8 8 7 7 7 7 5 6 11 13 15
9 8 8 7 7 6 5 5 4 3 3 4 6 8 8 9 7 7 7 8 7 8 8 8 8 7 6 8 12 11 9 10 12 14 15 13 8 7 7 6 6 7 6 6 7 8 8 8 8 8 8 9 10 10 10 12 14 14 11 10 9 8 7 5 3 3 6 8 9 10 3 1 3 4 4 4 6 6 7 6 6 6 6 4 6
Wind_Direction
174 208 136 6 274 310 308 345 332 320 319 281 321 356 334 306 309 309 312 307 298 278 312 293 299 301 306 311 304 305 296 288 276 259 261 279 279 162 180 195 213 216 216 217 220 224 224 226 229 227 225 222 222 223 221 220 220 220 218 215 216 217 217 216 215 215 218 220 217 217 217 218 220 222 219 218 221 221 218 217 210 212 214 216 220
155 336 255 60 339 308 267 280 326 315 276 314 327 308 281 300 290 289 317 302 288 301 309 310 307 312 308 311 299 303 292 285 290 274 288 300 270 163 174 193 210 215 217 218 218 221 223 225 227 227 225 224 223 221 221 220 220 219 219 218 216 217 216 217 217 217 215 218 221 219 218 219 221 223 222 221 222 223 222 223 221 218 220 219 218
208 176 208 217 193 213 266 300 259 292 320 295 322 330 327 304 293 308 287 297 303 308 300 305 303 300 308 298 302 297 305 304 298 295 291 283 298 323 166 187 206 216 221 219 220 220 222 224 224 224 225 225 223 221 220 220 219 219 219 217 218 218 215 215 217 217 217 217 217 220 220 218 219 223 224 224 224 225 224 223 224 223 224 222 220
315 300 292 328 285 272 271 249 283 281 327 303 291 331 304 300 306 293 299 290 287 287 296 288 292 295 301 302 303 308 309 317 304 310 298 262 251 249 240 167 195 218 220 223 222 220 222 223 224 223 223 224 223 221 221 219 219 220 220 217 217 218 218 215 214 216 217 218 218 217 219 221 220 220 222 225 225 225 224 225 224 224 225 225 224
188 233 266 250 260 264 251 247 249 282 269 291 305 276 266 268 269 274 265 281 281 287 284 288 292 300 301 302 313 310 311 304 307 301 296 308 273 238 242 182 210 200 217 223 220 220 220 222 224 224 224 223 223 222 222 221 221 221 220 218 216 216 217 218 215 214 215 217 218 218 217 218 222 222 221 222 224 224 225 225 225 224 224 224 224
243 211 244 247 241 239 262 274 267 242 275 275 283 276 275 282 283 284 277 272 283 289 300 301 304 305 307 313 307 313 314 312 310 308 303 286 294 307 261 248 163 221 218 214 219 219 218 218 220 223 225 225 225 224 223 222 221 222 222 220 217 220 220 217 216 215 214 215 217 218 218 217 218 221 223 223 223 222 222 223 225 226 225 224 224
226 259 239 244 254 245 244 252 276 302 275 266 272 289 286 278 287 289 298 295 299 311 299 299 301 299 304 309 306 310 312 305 308 302 295 305 307 276 275 267 280 248 215 191 200 212 216 215 215 220 223 226 227 226 225 224 222 221 221 225 222 222 221 220 217 215 215 215 214 216 218 218 218 219 220 223 224 224 222 221 223 224 224 225 226
248 247 266 271 272 277 262 277 272 266 269 276 271 263 267 272 278 295 304 310 310 299 304 306 305 302 301 303 306 311 315 311 309 309 315 313 307 311 296 281 253 253 282 285 250 190 203 211 214 214 217 222 226 225 226 226 227 225 223 223 224 223 221 222 221 218 215 216 215 214 216 217 218 218 219 221 223 225 225 224 223 224 224 224 225
232 237 263 259 260 264 262 259 273 281 283 282 279 278 282 291 296 294 297 298 300 302 304 308 304 310 314 307 309 314 302 316 305 311 313 295 280 277 286 292 268 204 240 222 228 242 181 203 209 213 214 219 220 224 224 226 226 229 227 224 224 224 223 222 223 222 218 217 217 217 215 216 217 216 217 220 222 223 224 225 226 224 225 225 225
230 241 257 278 287 286 290 292 286 283 284 281 283 287 286 286 294 296 298 300 297 304 305 305 309 305 306 305 312 312 312 302 309 303 290 292 279 282 286 282 272 283 280 280 274 236 211 190 203 206 212 212 216 219 222 222 223 225 226 226 225 223 224 223 223 222 220 220 220 220 219 217 217 216 215 217 220 222 224 225 225 225 227 227 227
233 239 249 258 261 270 278 285 285 284 284 284 279 285 290 293 296 297 290 287 296 295 297 298 296 300 302 313 309 310 308 314 313 305 305 306 319 297 275 253 265 267 238 237 235 232 239 253 192 212 209 209 212 214 216 219 220 219 222 224 225 224 223 223 223 222 220 218 220 220 220 220 219 217 215 216 217 219 221 223 224 225 227 228 228
233 238 249 264 270 272 277 283 281 278 280 287 293 287 297 301 295 298 298 292 282 283 285 291 294 301 305 295 297 332 330 324 297 318 316 328 327 328 304 300 287 275 270 260 247 263 233 202 232 234 232 192 203 208 214 215 217 217 219 221 222 223 222 222 223 222 222 220 220 220 220 220 220 219 219 217 216 216 218 220 222 223 225 227 228
234 241 248 253 262 268 272 272 275 280 280 282 288 297 299 296 290 280 279 283 286 287 291 301 306 293 287 299 324 351 294 334 339 333 329 349 349 327 318 318 301 280 274 270 316 298 300 258 228 238 235 242 189 204 209 212 214 217 217 218 220 221 222 221 222 222 223 223 223 221 220 219 219 221 221 220 219 218 218 218 220 222 222 224 226
236 245 253 261 266 271 270 273 276 279 283 285 286 282 276 272 282 290 281 286 293 298 307 313 293 307 317 324 308 325 324 264 279 292 316 321 326 305 306 347 1 329 310 13 309 327 310 328 289 243 251 261 236 197 205 211 216 216 215 216 218 219 221 221 221 221 222 223 223 222 220 219 220 221 221 221 220 220 220 219 220 221 220 220 222
237 238 248 249 258 270 279 285 283 282 278 273 271 269 267 271 273 279 293 292 292 286 284 284 300 305 312 312 309 321 288 243 156 252 300 292 286 323 294 301 321 309 315 326 27 16 323 336 311 336 342 284 256 235 206 209 218 207 213 213 215 217 219 220 220 222 222 224 224 222 221 219 221 221 222 222 221 220 221 221 221 222 223 223 223
243 248 249 259 267 270 278 285 285 279 273 274 277 281 277 267 264 268 276 289 293 304 309 300 286 302 303 317 308 312 311 285 263 255 253 268 224 228 280 311 300 302 355 316 304 303 313 294 315 319 288 291 284 246 278 249 232 193 203 212 212 214 217 218 218 220 221 224 224 223 221 220 219 220 222 222 223 222 221 222 222 223 224 224 224
252 252 263 272 271 269 276 284 285 280 277 276 275 279 292 298 293 286 276 285 308 305 300 300 289 284 289 292 295 295 301 312 317 329 184 242 242 256 246 241 210 287 274 273 241 256 289 294 296 303 293 285 312 325 299 271 223 210 199 203 209 212 214 215 216 218 219 221 223 222 221 220 220 219 220 222 224 224 224 223 222 222 224 224 224
237 255 268 281 286 277 273 277 281 274 263 273 286 291 284 277 276 270 279 268 266 277 294 313 296 276 257 259 267 290 312 309 302 300 251 309 285 231 209 223 194 257 264 233 254 267 238 250 262 295 304 295 265 246 242 279 306 288 269 207 201 206 211 213 215 216 217 219 221 221 222 223 223 222 222 221 222 223 225 225 225 225 224 224 225
253 258 281 287 278 276 269 266 273 276 275 274 277 282 288 292 302 293 281 284 280 273 281 278 274 281 279 271 273 271 252 286 297 296 290 249 230 227 246 259 248 281 250 257 263 257 274 272 272 267 255 263 282 274 261 244 248 223 242 259 188 204 208 211 213 214 214 216 217 219 221 222 223 224 223 222 222 222 223 225 227 227 227 226 226
251 262 272 275 276 282 272 268 273 281 287 288 294 300 308 304 302 294 284 279 276 269 274 280 284 284 279 280 269 264 281 281 269 283 279 282 280 269 245 275 285 239 237 252 240 230 235 242 264 269 267 242 239 250 255 274 268 262 256 219 199 201 206 209 210 212 215 214 215 216 218 220 222 225 225 224 223 222 222 223 226 228 228 228 229
249 266 267 274 268 278 284 275 277 284 284 289 292 299 299 298 293 283 273 270 271 274 270 273 276 280 284 276 275 285 293 267 278 280 286 272 278 262 264 246 223 236 237 243 242 234 234 238 237 250 268 265 262 260 256 252 280 282 288 228 210 208 212 212 207 210 214 216 216 216 216 218 220 221 224 225 225 224 223 223 224 227 228 229 230
249 220 243 261 274 271 282 290 284 285 288 296 296 291 285 284 282 280 280 281 281 276 272 273 279 283 294 300 309 295 264 274 280 242 264 250 261 279 279 283 271 247 239 251 256 249 243 223 226 241 236 256 243 241 237 246 242 248 257 211 196 207 215 219 215 212 213 216 217 216 215 216 217 218 220 221 223 225 225 225 225 225 226 226 226
273 276 279 278 282 282 299 310 307 300 290 287 289 299 302 300 297 296 286 279 278 280 281 280 281 289 295 298 297 283 291 293 281 209 222 250 262 264 274 270 264 275 262 255 255 254 254 252 246 226 248 239 230 237 226 241 245 234 239 184 219 216 214 216 220 221 218 217 218 217 217 215 216 217 218 218 220 221 223 225 226 227 227 227 227
270 272 267 307 315 315 304 303 305 301 299 311 315 314 310 305 300 299 299 295 291 289 287 289 298 299 303 303 282 308 300 296 303 199 262 254 262 271 274 280 272 271 274 272 262 266 268 263 258 262 270 265 260 232 217 235 250 242 242 228 214 231 221 221 221 223 226 222 219 220 220 218 218 218 218 218 218 219 220 222 224 227 227 227 228
256 269 304 322 326 317 320 314 312 319 328 321 313 310 308 306 304 302 304 303 303 307 302 300 303 299 309 293 284 272 270 282 301 310 320 293 269 276 275 277 277 280 283 290 282 278 274 268 269 272 266 274 289 286 247 228 241 240 255 167 191 175 244 219 222 230 230 228 225 222 224 226 221 219 220 220 218 218 218 219 221 224 225 226 227
280 300 319 327 316 320 316 318 318 328 335 323 312 312 313 309 314 316 319 319 318 313 302 310 314 309 308 305 307 308 309 339 328 312 316 288 275 268 279 270 261 279 289 285 281 283 272 254 258 253 248 252 239 231 237 216 209 245 230 256 124 129 112 143 195 224 233 234 234 228 225 227 227 223 221 221 221 220 218 217 218 219 221 222 223
315 319 324 308 312 325 335 315 354 350 337 335 332 325 344 325 325 331 324 325 343 332 320 321 316 322 325 322 320 321 327 327 327 298 280 280 292 300 285 280 283 281 282 282 276 260 270 275 273 272 271 267 262 250 250 245 233 183 205 228 144 135 115 104 79 93 92 250 242 237 234 231 230 230 224 220 220 219 218 216 214 215 217 217 219
291 307 294 302 328 342 331 357 15 354 2 355 347 348 349 340 335 345 329 329 320 318 317 321 315 317 319 322 320 318 314 317 293 295 294 287 282 258 233 262 279 285 286 287 287 277 267 277 278 278 277 267 275 269 242 246 244 135 272 201 228 142 141 135 117 28 324 301 267 257 248 241 237 234 231 225 220 219 217 215 215 214 215 217 217
289 281 306 342 10 358 357 9 26 12 11 17 1 7 354 350 1 342 343 347 337 330 334 323 325 329 326 335 336 321 312 304 293 289 292 282 271 263 250 268 272 279 289 292 291 299 309 290 283 294 312 303 253 242 254 257 19 4 278 250 299 333 105 148 119 289 283 280 285 290 283 266 249 241 238 236 228 223 221 219 217 215 214 215 215
310 317 324 339 57 33 34 42 34 30 15 14 12 15 5 357 351 324 18 348 336 334 329 329 332 330 327 327 327 311 307 315 301 296 289 271 267 264 271 270 269 268 276 282 288 296 297 298 298 295 308 288 286 300 292 80 237 336 305 317 301 262 177 247 211 226 237 253 261 273 283 278 274 261 247 241 238 233 227 225 222 218 214 212 212
266 6 338 8 57 67 62 53 67 47 28 24 17 21 4 353 346 337 8 353 338 334 334 341 333 329 330 330 325 318 327 325 317 304 296 286 271 270 276 281 270 266 274 279 283 282 293 298 302 320 324 310 308 294 296 164 93 337 296 280 276 282 296 290 271 238 219 225 236 260 284 300 298 293 281 261 251 247 245 245 242 237 226 216 213
63 51 48 49 44 45 67 59 45 31 16 18 8 18 4 6 350 351 355 348 344 338 344 339 338 337 335 335 337 331 335 331 316 311 301 288 282 288 291 287 267 272 285 284 284 286 292 299 303 302 302 316 323 309 307 296 140 178 277 285 277 282 273 265 264 226 209 203 224 242 262 281 298 311 315 313 317 1 9 335 313 294 274 269 256
83 83 87 89 87 77 60 54 51 45 32 11 13 12 13 4 360 356 358 354 349 346 343 342 346 339 340 337 334 336 339 328 323 321 306 305 305 295 291 286 281 279 276 282 283 288 294 296 301 306 324 333 317 324 318 329 326 251 260 281 286 284 284 283 278 257 201 204 235 259 311 331 344 347 343 354 83 97 72 68 103 115 286 275 294
97 99 98 98 89 83 77 60 45 43 26 31 17 26 15 11 9 7 5 354 351 347 343 341 338 339 337 337 333 339 338 332 327 315 322 316 307 308 301 291 285 287 291 287 284 294 298 303 311 318 316 330 317 321 315 308 301 317 301 290 287 282 281 279 273 262 171 177 202 42 24 23 61 93 118 128 136 153 121 82 65 60 65 73 40
107 110 110 99 91 83 75 62 44 39 33 26 35 30 27 19 13 4 358 350 347 343 345 343 343 342 340 335 335 338 337 335 333 331 327 327 327 317 309 304 314 318 308 302 305 305 300 305 312 311 315 328 320 316 321 322 325 313 303 292 283 284 275 275 270 271 144 136 105 84 72 98 120 134 145 156 159 132 99 83 72 66 63 73 72
115 101 97 96 93 91 81 69 57 49 44 38 34 32 27 20 8 356 357 348 351 348 346 347 345 343 341 339 342 342 344 342 338 337 342 341 329 326 326 339 323 322 322 317 312 307 305 302 307 311 318 314 316 316 324 316 303 299 301 296 288 287 292 273 260 261 132 112 101 109 123 136 141 137 130 134 132 102 89 89 83 77 78 77 77
114 113 107 108 102 84 65 65 63 54 50 43 32 30 21 13 2 359 358 353 351 348 352 351 350 347 345 345 342 344 347 342 342 343 350 343 337 339 337 339 337 332 325 313 308 303 300 305 311 312 320 323 321 319 321 311 304 305 309 304 302 303 298 296 284 277 113 88 111 113 114 117 127 121 116 119 115 112 105 102 104 105 102 99 98
110 106 104 91 80 73 64 63 68 63 52 41 35 26 19 9 2 7 2 355 359 355 359 355 353 354 347 345 349 350 348 343 341 344 350 347 338 344 341 339 335 327 316 304 298 304 307 318 318 324 334 326 325 316 324 309 309 311 309 311 302 266 284 335 359 13 40 141 164 139 131 129 99 79 81 82 86 81 85 97 112 115 114 113 110
110 104 100 92 78 80 76 68 64 59 52 39 31 19 15 11 6 8 4 6 5 3 8 2 359 355 352 350 353 356 351 351 355 358 351 345 337 338 347 338 332 332 329 328 326 306 319 322 326 314 306 311 314 314 315 306 283 294 312 330 302 328 326 18 51 319 124 91 70 41 58 62 77 85 84 78 80 89 96 94 84 91 91 86 85
108 108 104 99 97 86 80 78 71 63 50 42 27 10 7 11 8 11 15 12 8 11 7 2 359 353 354 355 3 11 357 357 2 0 357 350 352 349 356 342 332 331 326 340 325 322 328 329 308 334 332 328 275 277 294 287 323 319 302 330 312 323 301 73 19 15 18 339 176 135 96 110 122 123 116 106 91 70 44 72 61 63 75 89 78
110 106 100 96 95 92 85 80 74 59 53 43 28 9 358 11 20 20 19 18 20 16 3 4 3 359 4 349 23 12 358 353 6 14 9 2 353 356 4 351 349 349 346 8 320 357 340 302 325 331 286 304 337 329 312 347 334 353 356 331 301 288 282 93 69 40 16 25 23 2 107 112 88 83 77 54 60 78 58 30 39 40 35 57 64
106 105 105 103 99 98 93 83 75 64 57 52 22 12 1 352 6 27 23 27 27 19 8 2 4 9 22 9 18 9 354 5 10 17 16 12 9 8 356 355 352 352 355 358 352 1 349 328 351 324 5 14 352 17 6 3 356 333 2 341 342 11 16 33 44 51 42 23 30 108 84 95 86 73 62 64 56 47 38 31 29 39 46 48 48
112 112 113 110 104 96 92 89 80 72 60 43 12 9 359 346 337 31 33 37 30 23 20 11 7 16 23 23 1 354 1 8 11 4 28 20 10 5 355 358 357 353 343 346 337 346 339 334 4 332 53 29 356 21 354 4 340 356 3 353 4 10 320 129 157 56 39 90 9 110 138 103 85 75 64 61 53 45 42 41 36 48 50 52 52
119 119 115 111 108 103 96 91 81 75 70 39 1 6 0 340 332 333 41 33 29 28 19 17 16 17 18 17 9 357 9 6 353 7 26 19 8 4 5 14 22 14 6 347 341 338 350 5 27 9 24 24 25 14 6 8 19 2 356 2 21 23 20 43 62 84 58 93 117 103 87 53 35 73 68 63 63 59 48 38 42 48 52 56 59
123 122 120 116 111 105 100 96 89 81 81 44 356 3 352 331 324 315 45 30 33 31 20 21 20 17 18 9 14 12 11 7 359 13 13 2 16 28 39 41 44 50 43 25 16 2 19 36 35 37 31 24 24 25 18 4 357 10 6 34 31 65 64 64 57 65 57 39 298 66 55 75 84 73 73 61 58 56 47 41 46 52 55 59 60
129 127 121 115 114 110 103 98 91 90 90 41 346 353 342 326 310 303 45 34 38 32 24 23 23 25 24 18 11 19 19 24 25 3 352 355 9 23 41 41 43 42 38 30 22 22 34 33 38 36 29 28 20 11 10 356 8 20 7 32 35 47 48 57 67 64 49 28 37 76 91 68 85 87 75 70 68 64 57 43 43 47 52 57 60
135 132 128 124 121 119 119 112 106 102 84 15 340 341 339 318 310 296 51 40 45 41 31 30 29 31 35 31 23 21 28 30 20 353 333 342 359 24 33 35 36 42 41 30 22 26 34 35 37 41 35 30 25 17 11 12 10 8 15 18 25 44 61 11 76 76 80 48 29 3 83 61 58 84 75 74 72 69 73 57 53 53 50 51 54
132 131 130 129 126 122 118 117 114 107 90 24 343 338 333 317 303 347 56 56 53 51 43 42 41 39 38 33 32 42 20 14 13 345 327 312 342 358 25 36 42 57 64 68 49 40 43 45 48 49 50 44 38 37 30 20 15 18 340 11 39 13 92 87 69 67 70 56 31 48 101 95 80 82 89 87 83 81 75 78 65 67 62 56 52
141 139 140 136 131 127 122 120 121 113 102 31 356 342 332 325 311 70 65 65 63 60 57 54 52 50 34 22 34 19 20 19 4 336 320 315 29 11 41 57 68 62 72 105 93 73 67 79 70 66 60 63 61 50 39 29 16 10 26 44 30 6 43 67 75 72 73 66 46 10 87 100 92 93 88 77 78 76 71 71 86 81 84 78 68
144 143 141 135 131 127 123 121 120 119 99 46 21 357 339 343 313 61 82 78 77 73 71 67 65 67 46 25 13 28 26 18 356 344 340 340 34 26 30 45 48 51 47 62 91 94 125 123 113 93 68 53 82 68 54 42 30 27 36 36 17 14 77 66 65 77 80 72 50 360 33 76 103 106 103 102 85 69 64 51 68 136 127 105 94
140 144 141 133 127 117 103 95 72 105 106 81 43 7 349 345 339 75 71 86 84 81 84 74 72 67 68 52 33 21 17 4 358 360 355 358 54 44 60 70 67 63 60 41 53 55 44 50 51 49 52 49 46 37 46 48 40 37 36 31 20 26 36 60 87 105 87 69 42 4 78 302 133 119 133 121 79 62 47 46 46 39 33 59 96